Location: Saratoga Springs
(43.0831°N, 73.7850°W)
Time: 14:33:52
(UTC-04:00)

Courier 1B Rocket - All Passes

Search period start: 23 April 2024 00:00
Search period end: 03 May 2024 00:00
Orbit: 920 x 1201 km, 28.2° (Epoch: 22 April)

Date Brightness Start Highest point End Pass type
(mag) Time Alt. Az. Time Alt. Az. Time Alt. Az.
23 Apr - 03:52:02 10° SSW 03:57:21 20° SSE 04:02:31 10° ESE visible
23 Apr - 05:44:08 10° SW 05:50:00 25° S 05:55:38 10° SE daylight
23 Apr - 07:37:48 10° WSW 07:42:33 19° SSW 07:47:06 10° SSE daylight
24 Apr - 02:51:39 10° SSW 02:56:22 17° SSE 03:00:59 10° SE visible
24 Apr - 04:43:02 10° SW 04:49:00 25° S 04:54:45 10° SE visible
24 Apr - 06:36:10 10° WSW 06:41:38 22° SSW 06:46:52 10° SE daylight
24 Apr - 08:31:58 10° SW 08:33:58 11° SSW 08:35:56 10° S daylight
25 Apr - 01:51:52 10° S 01:55:24 14° SSE 01:58:55 10° SE visible
25 Apr - 03:42:07 10° SW 03:47:58 23° S 03:53:41 10° ESE visible
25 Apr - 05:34:46 10° WSW 05:40:40 25° S 05:46:20 10° SE daylight
25 Apr - 07:29:06 10° SW 07:33:09 16° SSW 07:37:04 10° SSE daylight
26 Apr - 02:41:26 10° SSW 02:46:56 21° SSE 02:52:23 10° ESE visible
26 Apr - 04:33:31 10° SW 04:39:39 26° S 04:45:35 10° SE visible
26 Apr - 06:27:09 10° WSW 06:32:15 20° SSW 06:37:11 10° SSE daylight
27 Apr - 01:41:06 10° SSW 01:45:56 18° SSE 01:50:45 10° ESE visible
27 Apr - 03:32:27 10° SW 03:38:35 26° S 03:44:36 10° ESE visible
27 Apr - 05:25:33 10° WSW 05:31:18 23° S 05:36:51 10° SE visible
27 Apr - 07:21:05 10° SW 07:23:42 12° SSW 07:26:16 10° S daylight
28 Apr - 00:41:23 10° S 00:44:58 14° SSE 00:48:35 10° SE night (unlit)
28 Apr - 02:31:35 10° SW 02:37:32 24° S 02:43:26 10° ESE visible
28 Apr - 04:24:10 10° WSW 04:30:16 25° S 04:36:13 10° SE visible
28 Apr - 06:18:26 10° WSW 06:22:49 16° SSW 06:27:07 10° SSE daylight
29 Apr - 01:30:59 10° SSW 01:36:29 21° SSE 01:42:02 10° ESE visible
29 Apr - 03:22:59 10° SW 03:29:13 26° S 03:35:22 10° SE visible
29 Apr - 05:16:32 10° WSW 05:21:53 20° SSW 05:27:05 10° SSE visible
30 Apr - 00:30:45 10° SSW 00:35:30 18° SSE 00:40:20 10° ESE night (unlit)
30 Apr - 02:21:59 10° SW 02:28:07 26° S 02:34:17 10° ESE visible
30 Apr - 04:15:00 10° WSW 04:20:52 23° S 04:26:40 10° SE visible
30 Apr - 06:10:19 10° SW 06:13:21 13° SSW 06:16:20 10° S daylight
30 Apr - 23:31:08 10° S 23:34:34 14° SSE 23:38:02 10° SE night (unlit)
01 May - 01:21:12 10° SW 01:27:04 24° S 01:33:01 10° ESE visible
01 May - 03:13:41 10° WSW 03:19:49 26° S 03:25:56 10° SE visible
01 May - 05:07:50 10° WSW 05:12:26 17° SSW 05:16:58 10° SSE visible
02 May - 00:20:41 10° SSW 00:26:03 21° SSE 00:31:32 10° ESE night (unlit)
02 May - 02:12:35 10° SW 02:18:44 26° S 02:24:58 10° SE visible
02 May - 04:06:02 10° WSW 04:11:26 21° SSW 04:16:50 10° SSE visible
02 May - 23:20:34 10° SSW 23:25:05 17° SSE 23:29:44 10° ESE night (unlit)
